Погода в Аршанове

Россия / Республика Хакасия     53°24′42″N   91°03′50″E
темп.,
°C
ветер,
м/с
пор.,
м/с
влажн.,
%
обл.,
%
осадки,
мм/ч
давл.,
гПа
погр.,
м
28 ноября, вс
вс2801:00−6ююз71562100 0.0 1036593
04:00−5юз71567100 0.0 1034568
07:00−3юз91771100 0.0 10321002
10:00−2зюз102054100 0.0 10311526
13:00−2зюз101753100 0.0 10321468
16:00−2зюз91354100 0.0 10331020
19:00−3юз81358100 0.0 1034867
22:00−3юз81458100 0.0 1035727
29 ноября, пн
пн2901:00−3юз8135899 0.0 1036621
04:00−3юз61160100 0.0 1037352
07:00−4ююз4857100 0.0 1037179
10:00−5з2363100 0.0 1038112
13:00−4ююз115598 0.0 1036211
16:00−4юв115791 0.0 103415
19:00−5ю116972 0.0 103411
22:00−6ююз117659 0.0 103311
30 ноября, вт
вт3001:00−7ююз228144 0.0 103221
04:00−8ю228215 0.0 103121
07:00−8ю228212 0.0 103123
10:00−8ююв22786 0.0 103147
13:00−4ю23595 0.0 1030167
16:00−4ююв11675 0.0 102910
19:00−5ююз119299 0.4 102915
22:00−5ююв118695 0.1 103010
1 декабря, ср
ср101:00−6ююз227925 0.1 103023
04:00−6ююз11755 0.0 103011
07:00−7ю22773 0.0 103032
10:00−8юв11745 0.0 103113
13:00−4ююв23585 0.0 1030140
16:00−5в116579 0.0 103011
19:00−7вюв117411 0.0 102910
22:00−7вюв118062 0.0 102910
2 декабря, чт
чт201:00−8вюв11855 0.0 102910
04:00−9ююв22875 0.0 102816
07:00−9юв22813 0.0 102814
10:00−9ююв11761 0.0 102917
13:00−6юв12560 0.0 1027149
16:00−7ююв22612 0.0 102718
19:00−8св11655 0.0 102710
22:00−9в1171100 0.0 102710